Location: Home
(51.5204°N, 2.5456°W)
Time: 14:55:35
(UTC+00:00)

STRAND 1 - Pass Details

Date: 15 December 2019
Orbit: 768 x 781 km, 98.5° (Epoch: 17 January)

Event Time Altitude Azimuth Distance (km) Brightness Sun altitude
Rises 06:07:38 0° 150° (SSE) 3,244 ? -17.6°
Reaches altitude 10° 06:09:58 10° 146° (SSE) 2,319 ? -17.3°
Maximum altitude 06:14:58 57° 69° (ENE) 906 ? -16.5°
Drops below altitude 10° 06:19:59 10° 352° (N) 2,327 ? -15.8°
Enters shadow 06:22:06 - 348° (NNW) 3,162 ? -15.5°
